Weather History for KDYT - August, 2014

Change the Weather History Date:

Thursday, August 21, 2014

  Actual Average Record
Temperature  
Mean Temperature 61 °F -  
Max Temperature 62 °F 72 °F 94 °F (1976)
Min Temperature 60 °F 55 °F 39 °F (1956)
Degree Days  
Heating Degree Days 4    
Growing Degree Days 11 (Base 50)    
Moisture  
Dew Point 61 °F    
Average Humidity 95    
Maximum Humidity 100    
Minimum Humidity 94    
Precipitation  
Precipitation 0.00 in - - ()
Sea Level Pressure  
Sea Level Pressure 29.90 in    
Wind  
Wind Speed 16 mph (NE)    
Max Wind Speed 24 mph    
Max Gust Speed 28 mph    
Visibility 8 miles    
Events Fog , Rain    
Averages and records for this station are not official NWS values.
T = Trace of Precipitation, MM = Missing Value Source: NWS Daily Summary

Daily Weather History Graph

Daily Weather History Graph

Search for Another Location

Airport or City:

Trip Planner

Search our weather history database for the weather conditions in past years. The results will help you decide how hot, cold, wet, or windy it might be!

Date:

Astronomy

Aug. 21, 2014 Rise Set
Actual Time 6:13 AM CDT 8:07 PM CDT
Civil Twilight 5:41 AM CDT 8:40 PM CDT
Nautical Twilight 5:01 AM CDT 9:19 PM CDT
Astronomical Twilight 4:17 AM CDT 10:03 PM CDT
Moon 2:38 AM CDT (8/21) 5:42 PM CDT (8/21)
Length of Visible Light 14h 58m
Length of Day
13h 54m
Waning Crescent, 13% of the Moon is Illuminated
Aug 21
Waning Crescent
Aug 25
New
Sep 2
First Quarter
Sep 8
Full
Sep 15
Last Quarter

Hourly Weather History & Observations

Time (CDT) Temp. Dew Point Humidity Pressure Visibility Wind Dir Wind Speed Gust Speed Precip Events Conditions
12:13 AM 62.6 °F 60.8 °F 94% 29.94 in 1.2 mi NE 12.7 mph - N/A   Overcast
12:34 AM 62.6 °F 60.8 °F 94% 29.94 in 10.0 mi NE 8.1 mph - N/A   Overcast
12:53 AM 62.6 °F 60.8 °F 94% 29.94 in 10.0 mi NE 9.2 mph - N/A   Overcast
1:14 AM 62.6 °F 60.8 °F 94% 29.94 in 10.0 mi NE 9.2 mph - N/A   Overcast
1:33 AM 62.6 °F 60.8 °F 94% 29.93 in 10.0 mi NE 10.4 mph - N/A   Overcast
1:53 AM 62.6 °F 60.8 °F 94% 29.92 in 10.0 mi NE 11.5 mph - N/A   Overcast
2:14 AM 62.6 °F 60.8 °F 94% 29.92 in 10.0 mi NE 12.7 mph - N/A   Overcast
2:33 AM 62.6 °F 60.8 °F 94% 29.91 in 10.0 mi NE 13.8 mph - N/A   Overcast
2:53 AM 62.6 °F 60.8 °F 94% 29.91 in 10.0 mi ENE 15.0 mph - N/A   Overcast
3:14 AM 62.6 °F 60.8 °F 94% 29.91 in 1.5 mi ENE 17.3 mph - N/A   Overcast
3:33 AM 60.8 °F 60.8 °F 100% 29.90 in 0.8 mi ENE 16.1 mph - N/A   Overcast
3:53 AM 60.8 °F 60.8 °F 100% 29.89 in 0.8 mi ENE 18.4 mph - N/A   Overcast
4:14 AM 60.8 °F 59.0 °F 94% 29.90 in 0.8 mi NE 16.1 mph - N/A   Overcast
4:33 AM 60.8 °F 60.8 °F 100% 29.89 in 0.8 mi ENE 18.4 mph - N/A   Overcast
4:54 AM 60.8 °F 59.0 °F 94% 29.91 in 0.5 mi NE 16.1 mph - N/A Fog Fog
5:14 AM 60.8 °F 59.0 °F 94% 29.90 in 0.8 mi NE 15.0 mph - N/A   Overcast
5:33 AM 60.8 °F 59.0 °F 94% 29.91 in 0.8 mi NE 16.1 mph - N/A   Overcast
5:53 AM 60.8 °F 59.0 °F 94% 29.90 in 1.2 mi NE 15.0 mph - N/A   Overcast
6:14 AM 60.8 °F 59.0 °F 94% 29.92 in 3.0 mi NE 15.0 mph - N/A   Overcast
6:33 AM 60.8 °F 59.0 °F 94% 29.93 in 7.0 mi NE 17.3 mph - N/A   Overcast
6:53 AM 60.8 °F 59.0 °F 94% 29.91 in 10.0 mi NE 16.1 mph - N/A   Overcast
7:13 AM 60.8 °F 60.8 °F 100% 29.91 in 10.0 mi NE 18.4 mph - N/A   Overcast
7:33 AM 60.8 °F 60.8 °F 100% 29.92 in 10.0 mi ENE 17.3 mph - N/A   Overcast
7:53 AM 60.8 °F 60.8 °F 100% 29.93 in 10.0 mi ENE 16.1 mph - N/A   Overcast
8:14 AM 60.8 °F 60.8 °F 100% 29.92 in 10.0 mi ENE 16.1 mph - N/A   Overcast
8:33 AM 60.8 °F 60.8 °F 100% 29.91 in 4.0 mi ENE 17.3 mph - N/A Rain Rain
8:54 AM 60.8 °F 60.8 °F 100% 29.90 in 5.0 mi NE 17.3 mph - N/A   Light Drizzle
9:13 AM 60.8 °F 60.8 °F 100% 29.89 in 7.0 mi NE 18.4 mph - N/A   Light Drizzle
9:34 AM 62.6 °F 60.8 °F 94% 29.88 in 10.0 mi NE 18.4 mph - N/A   Overcast
9:53 AM 62.6 °F 60.8 °F 94% 29.87 in 10.0 mi NE 18.4 mph - N/A   Overcast
10:14 AM 62.6 °F 60.8 °F 94% 29.87 in 10.0 mi NE 20.7 mph - N/A   Overcast
10:33 AM 62.6 °F 60.8 °F 94% 29.88 in 10.0 mi ENE 20.7 mph - N/A   Overcast
10:53 AM 62.6 °F 60.8 °F 94% 29.89 in 10.0 mi ENE 19.6 mph - N/A   Overcast
11:13 AM 62.6 °F 60.8 °F 94% 29.89 in 10.0 mi NE 17.3 mph - N/A   Overcast
11:34 AM 62.6 °F 60.8 °F 94% 29.88 in 10.0 mi NE 18.4 mph - N/A   Overcast
11:53 AM 62.6 °F 60.8 °F 94% 29.88 in 10.0 mi NE 20.7 mph - N/A   Overcast
12:13 PM 62.6 °F 60.8 °F 94% 29.88 in 10.0 mi NE 24.2 mph 27.6 mph N/A   Overcast
12:34 PM 62.6 °F 60.8 °F 94% 29.88 in 10.0 mi NE 19.6 mph - N/A   Overcast
12:53 PM 62.6 °F 60.8 °F 94% 29.88 in 10.0 mi NE 19.6 mph 25.3 mph N/A   Overcast
1:14 PM 62.6 °F 60.8 °F 94% 29.89 in 10.0 mi NE 23.0 mph 26.5 mph N/A   Overcast
1:33 PM 62.6 °F 60.8 °F 94% 29.88 in 10.0 mi NE 20.7 mph - N/A   Overcast
1:54 PM 62.6 °F 60.8 °F 94% 29.88 in 10.0 mi NE 21.9 mph - N/A   Overcast
2:13 PM 62.6 °F 60.8 °F 94% 29.88 in 10.0 mi NE 20.7 mph 26.5 mph N/A   Overcast
2:33 PM 62.6 °F 60.8 °F 94% 29.88 in 10.0 mi NE 19.6 mph - N/A   Overcast
3:13 PM 62.6 °F 60.8 °F 94% 29.88 in 10.0 mi NE 20.7 mph - N/A   Overcast
3:34 PM 62.6 °F 60.8 °F 94% 29.87 in 10.0 mi NE 20.7 mph - N/A   Overcast
3:53 PM 62.6 °F 60.8 °F 94% 29.88 in 10.0 mi NE 19.6 mph - N/A   Overcast
4:14 PM 62.6 °F 60.8 °F 94% 29.88 in 10.0 mi NE 19.6 mph - N/A   Overcast
4:33 PM 62.6 °F 60.8 °F 94% 29.88 in 10.0 mi NE 20.7 mph - N/A   Overcast
4:53 PM 62.6 °F 60.8 °F 94% 29.88 in 10.0 mi NE 20.7 mph 25.3 mph N/A   Overcast
5:14 PM 62.6 °F 60.8 °F 94% 29.88 in 10.0 mi NE 20.7 mph - N/A   Overcast
5:33 PM 62.6 °F 60.8 °F 94% 29.89 in 10.0 mi NE 19.6 mph - N/A   Overcast
5:54 PM 62.6 °F 60.8 °F 94% 29.90 in 10.0 mi NE 17.3 mph - N/A   Overcast
6:14 PM 62.6 °F 60.8 °F 94% 29.90 in 10.0 mi NE 18.4 mph 24.2 mph N/A   Overcast
6:34 PM 62.6 °F 60.8 °F 94% 29.90 in 10.0 mi NE 18.4 mph 24.2 mph N/A   Overcast
6:53 PM 62.6 °F 60.8 °F 94% 29.90 in 10.0 mi NE 19.6 mph 24.2 mph N/A   Overcast
7:14 PM 62.6 °F 60.8 °F 94% 29.90 in 7.0 mi NE 18.4 mph - N/A   Overcast
7:34 PM 62.6 °F 60.8 °F 94% 29.89 in 10.0 mi NE 18.4 mph 25.3 mph N/A   Overcast
7:53 PM 62.6 °F 60.8 °F 94% 29.89 in 10.0 mi NE 18.4 mph - N/A   Overcast
8:13 PM 62.6 °F 60.8 °F 94% 29.90 in 10.0 mi NE 16.1 mph - N/A   Overcast
8:53 PM 62.6 °F 60.8 °F 94% 29.91 in 10.0 mi NE 18.4 mph - N/A   Overcast
9:14 PM 62.6 °F 60.8 °F 94% 29.91 in 7.0 mi NE 17.3 mph - N/A Rain Rain
9:33 PM 62.6 °F 60.8 °F 94% 29.92 in 10.0 mi NE 17.3 mph - N/A   Light Drizzle
9:54 PM 62.6 °F 60.8 °F 94% 29.92 in 10.0 mi NE 19.6 mph - N/A   Overcast
10:13 PM 62.6 °F 60.8 °F 94% 29.92 in 10.0 mi ENE 20.7 mph - N/A Rain Light Rain
10:33 PM 62.6 °F 60.8 °F 94% 29.91 in 10.0 mi ENE 21.9 mph - N/A   Overcast
10:53 PM 62.6 °F 60.8 °F 94% 29.91 in 10.0 mi ENE 20.7 mph - N/A Rain Light Rain
11:13 PM 62.6 °F 60.8 °F 94% 29.91 in 10.0 mi NE 19.6 mph - N/A   Overcast
11:34 PM 62.6 °F 60.8 °F 94% 29.91 in 5.0 mi ENE 20.7 mph - N/A   Overcast
11:53 PM 62.6 °F 60.8 °F 94% 29.91 in 5.0 mi NE 18.4 mph - N/A   Light Drizzle